Home > Weather > Landsberg am Lech > Past weeks

Flag for Germany Weather for the Past 2 Weeks in Landsberg am Lech, Bavaria, Germany

Now
54 °F

Passing clouds.


Feels Like: 53 °F
Forecast: 33 / 59 °F
Wind: 3 mph from Northwest

Location: Landsberg

Current Time: Apr 29, 2016 at 2:40:09 PM

Latest Report: Apr 29, 2016 at 1:20 PM


Visibility: N/A

Pressure: 30.04 "Hg (27.98 "Hg at 593m altitude)

Humidity: 35%

Dew Point: 27 °F

Location of Landsberg am LechLocation

Historic Weather in Landsberg am Lech — Graph

°F

Landsberg am Lech Temperature Yesterday

Maximum temperature yesterday: 48 °F (at 2:20 PM)
Minimum temperature yesterday: 28 °F (at 1:20 AM)
Average temperature yesterday: 38 °F

High & Low Weather Summary for the Past Weeks

 TemperatureHumidityPressure
High64 °F (Apr 22, 3:20 PM)100% (Apr 17, 1:20 PM)30.36 "Hg (Apr 17, 1:20 PM)
Low28 °F (Apr 28, 1:20 AM)32% (Apr 28, 1:20 PM)29.59 "Hg (Apr 26, 9:20 AM)
Average44 °F76%29.93 "Hg
* Reported Apr 14 1:20 PM — Apr 29 1:20 PM, Landsberg am Lech, Weather by CustomWeather, © 2016

Note: Actual official high and low records may vary slightly from our data, if they occured in-between our weather recording intervals... More about our weather records

Advertising

Landsberg am Lech Weather History for the Previous 24 Hours

Scroll right to see more
 ConditionsComfort  
Time TempWeatherWind HumidityBarometerVisibility
1:20 PM
Fri, Apr 29
54 °FPassing clouds.3 mph35%30.04 "HgN/A
12:20 PM52 °FPassing clouds.5 mph35%30.04 "HgN/A
11:20 AM50 °FPassing clouds.5 mph43%30.07 "HgN/A
10:20 AM46 °FPassing clouds.3 mph62%30.07 "HgN/A
9:20 AM43 °FPassing clouds.3 mph66%30.07 "HgN/A
8:20 AM37 °FPassing clouds.2 mph81%30.07 "HgN/A
7:20 AM32 °FPassing clouds.5 mph87%30.04 "HgN/A
6:20 AM30 °FPassing clouds.3 mph93%30.04 "HgN/A
5:20 AM30 °FPassing clouds.3 mph93%30.04 "HgN/A
4:20 AM32 °FPassing clouds.2 mph87%30.04 "HgN/A
3:20 AM32 °FPassing clouds.5 mph87%30.04 "HgN/A
2:20 AM32 °FPassing clouds.7 mph87%30.04 "HgN/A
1:20 AM34 °FPassing clouds.3 mph87%30.04 "HgN/A
12:20 AM34 °FPassing clouds.3 mph87%30.04 "HgN/A
11:20 PM
Thu, Apr 28
36 °FPassing clouds.8 mph87%30.04 "HgN/A
10:20 PM36 °FScattered showers. Passing clouds.5 mph87%30.04 "HgN/A
9:20 PM37 °FScattered showers. Passing clouds.1 mph81%30.04 "HgN/A
8:20 PM41 °FScattered showers. Scattered clouds.2 mph70%30.01 "HgN/A
7:20 PM41 °FScattered showers. Partly sunny.6 mph70%30.01 "HgN/A
6:20 PM45 °FScattered showers. Broken clouds.7 mph57%29.98 "HgN/A
5:20 PM45 °FScattered clouds.8 mph57%29.98 "HgN/A
5:00 PM46 °FScattered showers. Scattered clouds.10 mph53%29.98 "HgN/A
4:20 PM45 °FScattered showers. Partly sunny.15 mph57%29.98 "HgN/A
3:20 PM46 °FScattered showers. Partly sunny.15 mph50%29.98 "HgN/A
2:20 PM48 °FScattered showers. Scattered clouds.12 mph32%29.95 "HgN/A
Weather by CustomWeather, © 2016

See weather overviewHow to use our weather pages